Weather History for KJMS - May, 2013

Change the Weather History Date:

Wednesday, May 22, 2013

  Actual Average Record
Temperature  
Mean Temperature 57 °F 57 °F  
Max Temperature 68 °F 70 °F 91 °F (1966)
Min Temperature 45 °F 45 °F 21 °F (1963)
Degree Days  
Heating Degree Days 8 8  
Month to date heating degree days 274 260  
Since 1 July heating degree days 9580 8854  
Cooling Degree Days 0 1  
Month to date cooling degree days 9 11  
Year to date cooling degree days 9 13  
Growing Degree Days 6 (Base 50)    
Moisture  
Dew Point 43 °F    
Average Humidity 64    
Maximum Humidity 89    
Minimum Humidity 39    
Precipitation  
Precipitation 0.00 in 0.09 in 1.30 in (2010)
Month to date precipitation 3.91 1.83  
Year to date precipitation 5.10 4.72  
Sea Level Pressure  
Sea Level Pressure 29.99 in    
Wind  
Wind Speed 17 mph (NNE)    
Max Wind Speed 29 mph    
Max Gust Speed 36 mph    
Visibility 10 miles    
Events      
T = Trace of Precipitation, MM = Missing Value Source: NWS Daily Summary

Daily Weather History Graph

Daily Weather History Graph

Search for Another Location

Airport or City:

Trip Planner

Search our weather history database for the weather conditions in past years. The results will help you decide how hot, cold, wet, or windy it might be!

Date:

Astronomy

May. 22, 2013 Rise Set
Actual Time 5:51 AM CDT 9:11 PM CDT
Civil Twilight 5:14 AM CDT 9:49 PM CDT
Nautical Twilight 4:25 AM CDT 10:38 PM CDT
Astronomical Twilight 3:24 AM CDT 11:40 PM CDT
Moon 6:27 PM CDT (5/22) 4:07 AM CDT (5/22)
Length of Visible Light 16h 34m
Length of Day
15h 20m
Waxing Gibbous, 91% of the Moon is Illuminated
May 22
Waxing Gibbous
May 24
Full
May 31
Last Quarter
Jun 8
New
Jun 16
First Quarter

Hourly Weather History & Observations

Time (CDT) Temp. Windchill Dew Point Humidity Pressure Visibility Wind Dir Wind Speed Gust Speed Precip Events Conditions
12:06 AM 46.4 °F 38.3 °F 44.6 °F 93% 29.89 in 10.0 mi ENE 23.0 mph 32.2 mph N/A   Overcast
12:56 AM 48.0 °F - 43.0 °F 83% 29.93 in 10.0 mi NE 17.3 mph 29.9 mph N/A   Overcast
1:56 AM 48.0 °F - 43.0 °F 83% 29.92 in 10.0 mi NE 18.4 mph 24.2 mph N/A   Overcast
2:56 AM 48.9 °F - 43.0 °F 80% 29.92 in 10.0 mi NE 18.4 mph 25.3 mph N/A   Overcast
3:56 AM 48.0 °F - 43.0 °F 83% 29.93 in 10.0 mi NNE 12.7 mph - N/A   Mostly Cloudy
4:56 AM 46.9 °F - 43.0 °F 86% 29.94 in 10.0 mi North 10.4 mph - N/A   Clear
5:56 AM 45.0 °F 38.9 °F 41.0 °F 86% 29.94 in 10.0 mi North 12.7 mph - N/A   Clear
6:56 AM 46.0 °F 39.6 °F 41.0 °F 83% 29.95 in 10.0 mi North 15.0 mph - N/A   Clear
7:56 AM 48.9 °F - 39.9 °F 71% 29.94 in 10.0 mi North 18.4 mph - N/A   Scattered Clouds
8:56 AM 53.1 °F - 43.0 °F 69% 29.95 in 10.0 mi NNE 21.9 mph 28.8 mph N/A   Clear
9:56 AM 55.0 °F - 45.0 °F 69% 29.97 in 10.0 mi NE 21.9 mph 33.4 mph N/A   Clear
10:56 AM 57.9 °F - 43.0 °F 58% 29.98 in 10.0 mi NNE 25.3 mph 32.2 mph N/A   Clear
11:56 AM 60.1 °F - 42.1 °F 51% 29.99 in 10.0 mi NNE 27.6 mph 33.4 mph N/A   Clear
12:56 PM 62.1 °F - 43.0 °F 50% 29.99 in 10.0 mi NNE 25.3 mph - N/A   Clear
1:56 PM 63.0 °F - 42.1 °F 46% 30.00 in 10.0 mi NE 21.9 mph 31.1 mph N/A   Clear
2:56 PM 64.9 °F - 43.0 °F 45% 30.00 in 10.0 mi NE 21.9 mph 28.8 mph N/A   Clear
3:56 PM 66.0 °F - 42.1 °F 42% 30.01 in 10.0 mi NE 18.4 mph 27.6 mph N/A   Clear
4:56 PM 66.9 °F - 41.0 °F 39% 30.02 in 10.0 mi NE 24.2 mph 29.9 mph N/A   Clear
5:56 PM 68.0 °F - 42.1 °F 39% 30.02 in 10.0 mi NE 20.7 mph 28.8 mph N/A   Clear
6:56 PM 66.9 °F - 42.1 °F 40% 30.04 in 10.0 mi NE 19.6 mph 28.8 mph N/A   Clear
7:56 PM 64.9 °F - 44.1 °F 47% 30.06 in 10.0 mi NE 13.8 mph - N/A   Clear
8:56 PM 59.0 °F - 46.9 °F 64% 30.06 in 10.0 mi ENE 5.8 mph - N/A   Clear
9:56 PM 54.0 °F - 48.0 °F 80% 30.09 in 10.0 mi North 6.9 mph - N/A   Clear
10:56 PM 53.1 °F - 46.9 °F 80% 30.11 in 10.0 mi North 6.9 mph - N/A   Clear
11:56 PM 53.1 °F - 48.9 °F 86% 30.13 in 10.0 mi North 8.1 mph - N/A   Mostly Cloudy